TimeEST,TemperatureF,Dew PointF,Humidity,Sea Level PressureIn,VisibilityMPH,Wind Direction,Wind SpeedMPH,Gust SpeedMPH,PrecipitationIn,Events,Conditions,WindDirDegrees,DateUTC
12:05 AM,17.6,14.0,86,30.02,4.0,Calm,Calm,-,0.00,Snow,Light Snow,0,2013-01-24 05:05:00
12:26 AM,17.6,14.0,86,30.02,2.0,Calm,Calm,-,0.00,Snow,Light Snow,0,2013-01-24 05:26:00
12:41 AM,17.6,14.0,86,30.02,2.0,SW,3.5,-,0.00,Snow,Light Snow,220,2013-01-24 05:41:00
12:53 AM,18.0,14.0,84,30.06,2.0,SW,4.6,-,0.00,Snow,Light Snow,220,2013-01-24 05:53:00
1:53 AM,18.0,14.0,84,30.07,2.5,SW,4.6,-,0.00,Snow,Light Snow,230,2013-01-24 06:53:00
2:06 AM,17.6,14.0,86,30.03,3.0,West,4.6,-,0.00,Snow,Light Snow,260,2013-01-24 07:06:00
2:24 AM,17.6,14.0,86,30.03,2.5,West,4.6,-,0.00,Snow,Light Snow,260,2013-01-24 07:24:00
2:53 AM,18.0,14.0,84,30.08,3.0,West,4.6,-,0.00,Snow,Light Snow,280,2013-01-24 07:53:00
3:46 AM,17.6,12.2,79,30.06,5.0,WNW,6.9,-,0.00,Snow,Light Snow,290,2013-01-24 08:46:00
3:53 AM,18.0,12.9,81,30.10,3.0,WNW,6.9,-,0.00,Snow,Light Snow,290,2013-01-24 08:53:00
4:20 AM,17.6,12.2,79,30.08,4.0,NW,8.1,-,0.00,Snow,Light Snow,310,2013-01-24 09:20:00
4:36 AM,17.6,12.2,79,30.10,2.0,WNW,6.9,-,0.00,Snow,Light Snow,300,2013-01-24 09:36:00
4:53 AM,17.1,12.0,81,30.15,3.0,WNW,8.1,-,0.00,Snow,Light Snow,300,2013-01-24 09:53:00
5:09 AM,17.6,12.2,79,30.11,2.5,WNW,10.4,-,0.00,Snow,Light Snow,300,2013-01-24 10:09:00
5:38 AM,17.6,12.2,79,30.13,4.0,NW,6.9,-,0.00,Snow,Light Snow,310,2013-01-24 10:38:00
5:53 AM,17.1,10.9,77,30.20,2.5,NNW,6.9,-,0.00,Snow,Light Snow,330,2013-01-24 10:53:00
6:01 AM,15.8,10.4,79,30.16,5.0,NNW,6.9,-,0.00,Snow,Light Snow,330,2013-01-24 11:01:00
6:11 AM,15.8,8.6,73,30.17,9.0,NNW,11.5,17.3,0.00,,Overcast,330,2013-01-24 11:11:00
6:53 AM,16.0,9.0,74,30.25,9.0,NW,9.2,-,0.00,,Overcast,320,2013-01-24 11:53:00
7:53 AM,15.1,9.0,77,30.31,6.0,NW,10.4,16.1,0.00,,Haze,310,2013-01-24 12:53:00
8:14 AM,15.8,8.6,73,30.28,6.0,NW,5.8,-,N/A,,Mostly Cloudy,310,2013-01-24 13:14:00
8:53 AM,16.0,8.1,71,30.36,6.0,NW,6.9,-,N/A,,Mostly Cloudy,320,2013-01-24 13:53:00
9:53 AM,17.1,8.1,68,30.41,10.0,NW,9.2,-,N/A,,Overcast,310,2013-01-24 14:53:00
10:53 AM,18.0,7.0,62,30.45,10.0,NW,11.5,-,N/A,,Mostly Cloudy,310,2013-01-24 15:53:00
11:03 AM,17.6,6.8,63,30.41,10.0,NNW,10.4,-,N/A,,Mostly Cloudy,330,2013-01-24 16:03:00
11:53 AM,19.9,5.0,52,30.47,10.0,Variable,6.9,-,N/A,,Mostly Cloudy,0,2013-01-24 16:53:00
12:53 PM,19.9,3.0,48,30.47,10.0,NW,9.2,-,N/A,,Mostly Cloudy,310,2013-01-24 17:53:00
1:53 PM,21.9,3.0,44,30.46,10.0,NNW,12.7,-,N/A,,Partly Cloudy,340,2013-01-24 18:53:00
2:53 PM,21.9,1.9,42,30.46,10.0,NNW,6.9,-,N/A,,Clear,340,2013-01-24 19:53:00
3:53 PM,21.0,1.9,44,30.48,10.0,NNW,5.8,-,N/A,,Mostly Cloudy,340,2013-01-24 20:53:00
4:53 PM,19.9,1.0,44,30.50,10.0,North,4.6,-,N/A,,Mostly Cloudy,350,2013-01-24 21:53:00
5:53 PM,18.0,1.0,48,30.51,10.0,North,5.8,-,N/A,,Partly Cloudy,350,2013-01-24 22:53:00
6:53 PM,17.1,-0.0,47,30.54,10.0,Calm,Calm,-,N/A,,Clear,0,2013-01-24 23:53:00
7:53 PM,15.1,3.0,59,30.56,10.0,NNE,4.6,-,N/A,,Clear,30,2013-01-25 00:53:00
8:53 PM,14.0,3.0,62,30.54,10.0,Calm,Calm,-,N/A,,Clear,0,2013-01-25 01:53:00
9:53 PM,12.0,3.0,67,30.53,10.0,Calm,Calm,-,N/A,,Clear,0,2013-01-25 02:53:00
10:53 PM,12.0,3.0,67,30.53,10.0,Calm,Calm,-,N/A,,Clear,0,2013-01-25 03:53:00
11:53 PM,10.9,3.9,73,30.52,10.0,Calm,Calm,-,N/A,,Clear,0,2013-01-25 04:53:00